When you browse on this site, cookies collect data to enhance your experience and personalize the content and advertising you see.
Visit our Privacy Policy to learn more. By continuing to use the site, you agree to this use of cookies and data.
  • In Spain
  • List of Countries
  • For 7 days
  • Water Temperature
  • Weather Map
  • Weather Widgets
  • user-avatar
    Login

    Hourly Weather Oran

    Today, 30 May, Saturday

    Time Temperature Precipitation Wind Pressure Humidity
    00:00 +21°C° 0 mm 2 mps 750 mmHg 72%
    01:00 +20°C° 0 mm 2 mps 750 mmHg 76%
    02:00 +20°C° 0 mm 2 mps 750 mmHg 80%
    03:00 +19°C° 0 mm 3 mps 750 mmHg 83%
    04:00 +19°C° 0 mm 3 mps 750 mmHg 83%
    05:00 +19°C° 0 mm 3 mps 750 mmHg 83%
    06:00 +20°C° 0 mm 4 mps 750 mmHg 83%
    07:00 +20°C° 0 mm 4 mps 750 mmHg 78%
    08:00 +21°C° 0 mm 4 mps 750 mmHg 72%
    09:00 +22°C° 0 mm 4 mps 750 mmHg 67%
    10:00 +23°C° 0 mm 4 mps 750 mmHg 60%
    11:00 +26°C° 0 mm 5 mps 750 mmHg 54%
    12:00 +27°C° 0 mm 5 mps 750 mmHg 47%
    13:00 +28°C° 0 mm 6 mps 749 mmHg 47%
    14:00 +28°C° 0 mm 6 mps 749 mmHg 47%
    15:00 +29°C° 0 mm 7 mps 749 mmHg 48%
    16:00 +28°C° 0 mm 7 mps 748 mmHg 49%
    17:00 +27°C° 0 mm 7 mps 748 mmHg 51%
    18:00 +26°C° 0 mm 7 mps 747 mmHg 52%
    19:00 +24°C° 0 mm 6 mps 748 mmHg 54%
    20:00 +23°C° 0 mm 5 mps 748 mmHg 56%
    21:00 +23°C° 0 mm 4 mps 749 mmHg 58%
    22:00 +23°C° 0 mm 4 mps 749 mmHg 59%
    23:00 +23°C° 0 mm 4 mps 748 mmHg 60%

    Tomorrow, 31 May, Sunday

    Time Temperature Precipitation Wind Pressure Humidity
    00:00 +22°C° 0 mm 4 mps 748 mmHg 60%
    01:00 +22°C° 0 mm 3 mps 747 mmHg 61%
    02:00 +22°C° 0 mm 3 mps 747 mmHg 62%
    03:00 +23°C° 0 mm 2 mps 747 mmHg 63%
    04:00 +22°C° 0 mm 3 mps 747 mmHg 60%
    05:00 +24°C° 0 mm 3 mps 746 mmHg 58%
    06:00 +24°C° 0 mm 3 mps 746 mmHg 55%
    07:00 +25°C° 0 mm 3 mps 746 mmHg 51%
    08:00 +26°C° 0 mm 3 mps 747 mmHg 47%
    09:00 +28°C° 0 mm 3 mps 747 mmHg 43%
    10:00 +28°C° 0.1 mm 3 mps 747 mmHg 42%
    11:00 +29°C° 0.1 mm 4 mps 747 mmHg 41%
    12:00 +30°C° 0.1 mm 4 mps 746 mmHg 40%
    13:00 +29°C° 0 mm 4 mps 747 mmHg 43%
    14:00 +29°C° 0 mm 4 mps 747 mmHg 46%
    15:00 +28°C° 0 mm 5 mps 747 mmHg 48%
    16:00 +27°C° 0 mm 4 mps 747 mmHg 53%
    17:00 +26°C° 0 mm 4 mps 748 mmHg 57%
    18:00 +25°C° 0 mm 4 mps 748 mmHg 62%
    19:00 +24°C° 0 mm 3 mps 748 mmHg 65%
    20:00 +22°C° 0 mm 3 mps 749 mmHg 68%
    21:00 +23°C° 0 mm 2 mps 749 mmHg 71%
    22:00 +23°C° 0 mm 2 mps 749 mmHg 73%
    23:00 +22°C° 0 mm 1 mps 749 mmHg 74%

    Day after tomorrow, 1 June, Monday

    Time Temperature Precipitation Wind Pressure Humidity
    00:00 +22°C° 0 mm 1 mps 749 mmHg 75%
    01:00 +22°C° 0 mm 1 mps 749 mmHg 76%
    02:00 +21°C° 0 mm 1 mps 749 mmHg 77%
    03:00 +21°C° 0 mm 1 mps 749 mmHg 79%
    04:00 +21°C° 0 mm 1 mps 749 mmHg 76%
    05:00 +22°C° 0 mm 1 mps 749 mmHg 74%
    06:00 +22°C° 0 mm 1 mps 749 mmHg 72%
    07:00 +23°C° 0 mm 1 mps 749 mmHg 65%
    08:00 +25°C° 0 mm 1 mps 750 mmHg 58%
    09:00 +26°C° 0 mm 2 mps 750 mmHg 51%
    10:00 +27°C° 0 mm 2 mps 750 mmHg 47%
    11:00 +29°C° 0 mm 3 mps 750 mmHg 43%
    12:00 +30°C° 0 mm 4 mps 750 mmHg 39%
    13:00 +30°C° 0 mm 4 mps 750 mmHg 40%
    14:00 +30°C° 0 mm 4 mps 750 mmHg 40%
    15:00 +32°C° 0 mm 5 mps 749 mmHg 41%
    16:00 +30°C° 0 mm 5 mps 749 mmHg 44%
    17:00 +29°C° 0 mm 5 mps 749 mmHg 47%
    18:00 +28°C° 0 mm 4 mps 749 mmHg 50%
    19:00 +27°C° 0 mm 4 mps 749 mmHg 54%
    20:00 +26°C° 0 mm 4 mps 749 mmHg 58%
    21:00 +25°C° 0 mm 3 mps 750 mmHg 63%
    22:00 +25°C° 0 mm 3 mps 750 mmHg 64%
    23:00 +24°C° 0 mm 2 mps 749 mmHg 66%

    2 June, Tuesday

    Time Temperature Precipitation Wind Pressure Humidity
    00:00 +24°C° 0 mm 2 mps 749 mmHg 68%
    01:00 +23°C° 0 mm 2 mps 749 mmHg 71%
    02:00 +23°C° 0 mm 2 mps 749 mmHg 74%
    03:00 +21°C° 0 mm 2 mps 749 mmHg 77%
    04:00 +22°C° 0 mm 1 mps 749 mmHg 79%
    05:00 +22°C° 0 mm 1 mps 749 mmHg 81%
    06:00 +22°C° 0 mm 1 mps 749 mmHg 82%
    07:00 +24°C° 0 mm 2 mps 749 mmHg 74%
    08:00 +25°C° 0 mm 2 mps 749 mmHg 65%
    09:00 +27°C° 0 mm 2 mps 749 mmHg 57%
    10:00 +28°C° 0 mm 3 mps 749 mmHg 53%
    11:00 +29°C° 0 mm 3 mps 748 mmHg 50%
    12:00 +32°C° 0 mm 4 mps 748 mmHg 46%
    13:00 +30°C° 0 mm 4 mps 748 mmHg 48%
    14:00 +30°C° 0 mm 4 mps 747 mmHg 50%
    15:00 +29°C° 0 mm 4 mps 747 mmHg 51%
    16:00 +28°C° 0 mm 3 mps 747 mmHg 57%
    17:00 +26°C° 0 mm 3 mps 746 mmHg 63%
    18:00 +25°C° 0 mm 3 mps 746 mmHg 68%
    19:00 +25°C° 0 mm 3 mps 747 mmHg 70%
    20:00 +24°C° 0 mm 3 mps 747 mmHg 73%
    21:00 +24°C° 0 mm 3 mps 748 mmHg 75%
    22:00 +22°C° 0 mm 3 mps 748 mmHg 77%
    23:00 +22°C° 0 mm 4 mps 747 mmHg 79%

    3 June, Wednesday

    Time Temperature Precipitation Wind Pressure Humidity
    00:00 +21°C° 0 mm 4 mps 747 mmHg 81%
    01:00 +21°C° 0 mm 4 mps 747 mmHg 83%
    02:00 +21°C° 0 mm 4 mps 746 mmHg 86%
    03:00 +20°C° 0 mm 3 mps 746 mmHg 88%
    04:00 +21°C° 0 mm 3 mps 746 mmHg 85%
    05:00 +21°C° 0 mm 3 mps 746 mmHg 83%
    06:00 +21°C° 0 mm 3 mps 746 mmHg 80%
    07:00 +23°C° 0 mm 4 mps 746 mmHg 70%
    08:00 +25°C° 0 mm 4 mps 746 mmHg 60%
    09:00 +27°C° 0 mm 5 mps 746 mmHg 49%
    10:00 +28°C° 0 mm 5 mps 746 mmHg 48%
    11:00 +28°C° 0 mm 6 mps 745 mmHg 46%
    12:00 +29°C° 0 mm 6 mps 745 mmHg 45%
    13:00 +29°C° 0 mm 6 mps 745 mmHg 44%
    14:00 +29°C° 0 mm 6 mps 744 mmHg 44%
    15:00 +28°C° 0 mm 6 mps 744 mmHg 44%
    16:00 +28°C° 0 mm 6 mps 744 mmHg 45%
    17:00 +27°C° 0 mm 6 mps 744 mmHg 47%
    18:00 +27°C° 0 mm 6 mps 744 mmHg 48%
    19:00 +26°C° 0 mm 6 mps 744 mmHg 50%
    20:00 +25°C° 0 mm 5 mps 744 mmHg 53%
    21:00 +25°C° 0 mm 5 mps 745 mmHg 55%
    22:00 +25°C° 0 mm 5 mps 744 mmHg 54%
    23:00 +23°C° 0 mm 5 mps 744 mmHg 52%

    4 June, Thursday

    Time Temperature Precipitation Wind Pressure Humidity
    00:00 +23°C° 0 mm 5 mps 744 mmHg 51%
    01:00 +23°C° 0 mm 5 mps 744 mmHg 51%
    02:00 +23°C° 0 mm 5 mps 744 mmHg 52%
    03:00 +22°C° 0 mm 4 mps 743 mmHg 52%
    04:00 +22°C° 0 mm 5 mps 743 mmHg 51%
    05:00 +22°C° 0 mm 5 mps 743 mmHg 50%
    06:00 +23°C° 0 mm 5 mps 743 mmHg 50%
    07:00 +24°C° 0 mm 6 mps 743 mmHg 48%
    08:00 +26°C° 0 mm 6 mps 744 mmHg 46%
    09:00 +27°C° 0 mm 7 mps 744 mmHg 44%
    10:00 +28°C° 0 mm 7 mps 744 mmHg 44%
    11:00 +28°C° 0 mm 6 mps 743 mmHg 43%
    12:00 +29°C° 0 mm 6 mps 743 mmHg 43%
    13:00 +29°C° 0 mm 6 mps 743 mmHg 43%
    14:00 +29°C° 0 mm 6 mps 743 mmHg 43%
    15:00 +29°C° 0 mm 5 mps 743 mmHg 43%
    16:00 +27°C° 0 mm 7 mps 743 mmHg 51%
    17:00 +26°C° 0 mm 8 mps 744 mmHg 59%
    18:00 +23°C° 0 mm 9 mps 744 mmHg 68%
    19:00 +23°C° 0 mm 8 mps 745 mmHg 66%
    20:00 +22°C° 0 mm 7 mps 746 mmHg 64%
    21:00 +22°C° 0 mm 6 mps 746 mmHg 63%
    22:00 +22°C° 0 mm 5 mps 747 mmHg 63%
    23:00 +22°C° 0 mm 5 mps 747 mmHg 64%
    Show more